Regional Weather Roundup
Issued by NWS

Home | Current Version | Previous Version | Text Only | Print | Product List | Glossary Off
Versions: 1 2 3 4 5 6 7 8 9 10 11 12 13 14 15 16 17 18 19 20 21 22 23 24 25 26 27 28 29 30 31 32 33 34 35 36 37 38 39 40 41 42 43 44 45 46 47 48 49 50

000
ASUS43 KMKX 271121
RWRWI

WISCONSIN REGIONAL WEATHER ROUNDUP
NATIONAL WEATHER SERVICE MILWAUKEE/SULLIVAN WI
600 AM CDT WED JUL 27 2016

NOTE: "FAIR" INDICATES FEW OR NO CLOUDS BELOW 12,000 FEET WITH NO
SIGNIFICANT WEATHER AND/OR OBSTRUCTIONS TO VISIBILITY.

WIZ001-002-006>008-014>016-023>028-271200-
NORTHWEST WISCONSIN

CITY           SKY/WX    TMP DP  RH WIND       PRES   REMARKS
SUPERIOR ARPT  MOCLDY    62  62  98 S3        29.97R
ASHLAND        MOCLDY    66  64  93 CALM      29.97R
HAYWARD        TSTM      67  64  90 SW12      30.03R
SIREN          CLOUDY    66  64  94 CALM      29.98F
CUMBERLAND     CLOUDY    68  61  77 N7        30.00R
RICE LAKE      CLOUDY    67  64  90 NW10G16   30.02R
CHETEK         MOCLDY    68  66  96 CALM      29.99S FOG
LADYSMITH      CLOUDY    66  64  92 CALM      30.02R
EAU CLAIRE     CLOUDY    70  69  97 CALM      29.97S
MENOMONIE      CLOUDY    69  67  93 CALM      29.98S
NEW RICHMOND   MOCLDY    71  68  89 CALM      29.98R
OSCEOLA        CLOUDY    70  70 100 CALM      29.99S
$$

WIZ003>005-009-010-017-018-271200-
NORTH CENTRAL WISCONSIN

CITY           SKY/WX    TMP DP  RH WIND       PRES   REMARKS
MANITOWISH WTR CLOUDY    64  64 100 CALM      30.01R
ARBOR VITAE    LGT RAIN  63  62  95 CALM      30.01R
WOODRUFF       LGT RAIN  63  62  95 CALM      30.01R
RHINELANDER    CLOUDY    65  62  90 SW3       30.01R
EAGLE RIVER    CLOUDY    61  61 100 CALM      30.01R
LAND O LAKES   CLOUDY    62  62  99 CALM      30.01R
PHILLIPS       LGT RAIN  64  64  99 CALM      30.01F
TOMAHAWK       CLOUDY    60  59  96 CALM      30.02R
MEDFORD        FOG       60  60 100 CALM      30.01S VSB 1/2
MERRILL        PTCLDY    60  60 100 CALM      30.01S
$$

WIZ029-030-035-036-043>047-271200-
CENTRAL WISCONSIN

CITY           SKY/WX    TMP DP  RH WIND       PRES   REMARKS
WAUSAU         PTCLDY    66  64  93 CALM      30.00R
MOSINEE        CLEAR     64  64 100 CALM      30.02R
MARSHFIELD     CLEAR     66  64  93 CALM      30.01R FOG
STEVENS POINT  PTCLDY    64  64  99 CALM      30.02R
WAUPACA        CLEAR     69  69  99 CALM      30.01R
WAUTOMA        CLEAR     65  64  97 CALM      30.01R
WISC RAPIDS    CLEAR     67  65  93 CALM      30.02R
CAMP DOUGLAS   PTCLDY    64  63  99 SE2       30.01S
$$

WIZ011>013-019>022-031-037>040-048>050-271200-
NORTHEAST WISCONSIN

CITY           SKY/WX    TMP DP  RH WIND       PRES   REMARKS
ANTIGO         CLOUDY    60  60  97 CALM      30.02S
SHAWANO        CLOUDY    70  65  85 S5        29.99R
OCONTO         CLOUDY   N/A N/A N/A CALM      29.96S
STURGEON BAY   CLEAR     69  66  90 NE5       29.97F
GREEN BAY      CLEAR     67  67 100 CALM      29.99R
MANITOWOC      CLEAR     73  66  78 CALM      29.99R
APPLETON       MOCLDY    70  68  94 CALM      29.99R
CLINTONVILLE   CLOUDY    68  64  88 S3        30.00R
OSHKOSH        PTCLDY    70  66  87 CALM      30.00R
$$

WIZ032>034-041-042-053>061-271200-
SOUTHWEST WISCONSIN

CITY           SKY/WX    TMP DP  RH WIND       PRES   REMARKS
LA CROSSE      CLEAR     71  68  90 SE7       29.99F
SPARTA         CLEAR     60  60 100 CALM      30.02S
VIROQUA        CLEAR     65  65 100 CALM      30.04S
BOSCOBEL       FOG       65  64  97 CALM      30.02S VSB 3/4
PRAIRIE DU CHI CLEAR     65  64  95 E3        30.02S FOG
PLATTEVILLE    CLEAR     66  66 100 CALM      30.04S
$$

WIZ056-057-062-063-064-067-068-271200-
SOUTH CENTRAL WISCONSIN

CITY           SKY/WX    TMP DP  RH WIND       PRES   REMARKS
REEDSBURG      CLEAR     64  64 100 CALM      30.02R
BARABOO/DELLS  CLEAR     64  62  91 CALM      30.02S
LONE ROCK      FOG       65  64  97 CALM      30.03R VSB 1
MINERAL POINT  CLEAR     68  64  88 CALM      30.04S
MADISON        PTCLDY    66  64  93 CALM      30.02R
MIDDLETON      CLEAR     65  65 100 CALM      30.03S
WATERTOWN      CLEAR     63  63 100 CALM      30.02R
MONROE         CLEAR     70  63  78 W8        30.04R
JANESVILLE     FOG       66  64  94 CALM      30.03R VSB 1/4
$$

WIZ051-052-058>065-066-070>072-271200-
SOUTHEAST WISCONSIN

CITY           SKY/WX    TMP DP  RH WIND       PRES   REMARKS
MILWAUKEE      PTCLDY    73  65  75 CALM      30.01R
WAUKESHA       CLEAR     64  63  94 CALM      30.03R
MILWAUKEE/TIMM CLEAR     68  61  77 CALM      30.03R
RACINE         CLEAR     70  63  78 SW5       30.03R
BURLINGTON     CLEAR     61  60  97 CALM      30.03R
KENOSHA        CLEAR     66  63  90 SW3       30.03R
FOND DU LAC    MOCLDY    69  65  86 CALM      30.02R
SHEBOYGAN      CLEAR     71  66  84 NW5       30.00R
WEST BEND      CLEAR     64  63  94 CALM      30.02R
JUNEAU         CLEAR     64  63  97 CALM      30.03R
$$

LSZ147-162-271200-
LAKE SUPERIOR

STATION/POSITION TIME  TEMP    WIND        PRES    WAVE
                       AIR SEA DIR/SP/G            HT/PER
                 (UTC) (F)     (DEG/KT/KT) (MB)    (FT/S)
W MID LAKE BUOY  1050   64 60   50/ 10/ 12 1014.5R   0
DEVILS ISLAND    1100   66      40/  9/ 10 1015.1R
PORT WING        1000   69     240/  2/  2 1014.6S
SAXON HARBOR     1000   70     190/  1/  2 1014.2S
$$

LMZ867-665-643>646-271200-
LAKE MICHIGAN

STATION/POSITION TIME  TEMP    WIND        PRES    WAVE
                       AIR SEA DIR/SP/G            HT/PER
                 (UTC) (F)     (DEG/KT/KT) (MB)    (FT/S)
CHAMBERS ISLAND  1000   72     330/  5/  6 1014.2F
S GREEN BAY BUOY 1100   74 74   80/  6/  8   N/A
N MID LAKE BUOY  1050   70 69  260/  6/  6 1013.8R   2/ 4
NORTHPORT PIER   1000   72     300/  4/  9 1014.2F
SISTER BAY       1021   73     340/ 10/ 11   N/A
ALGOMA LAKESHORE 1013          350/ 10/ 14   N/A
KEWAUNEE LAKESHO 1000   73     320/  3/  6 1014.2R
SHEBOYGAN LAKESH 1100   71     330/  5/  6 1015.7R
PORT WASHINGTON  1040   69     260/  3/  5 1016.3R
ATWATER BUOY     1100   66 54  180/  2/  2 1017.8R
MILWAUKEE LAKESH 1110   75     280/  5/  6   N/A
S MID LAKE BUOY  1050   75 74  240/  6/  8 1015.5R   0
KENOSHA   LAKESH 1100   73     270/  5/  8 1016.3R
$$

TC  - TEMPERATURE IN CELSIUS
VSB - VISIBILITY IN STATUTE MILES
WCI - WIND CHILL INDEX
HX  - HEAT INDEX





USA.gov is the U.S. government's official web portal to all federal, state and local government web resources and services.